26.02.2024 02:00:00 197,41
26.02.2024 03:00:00 197,41
26.02.2024 04:00:00 197,41
26.02.2024 05:00:00 197,41
26.02.2024 06:00:00 197,41
26.02.2024 07:00:00 197,41
26.02.2024 08:00:00 197,41
26.02.2024 10:00:00 197,41
26.02.2024 11:00:00 197,41
26.02.2024 12:00:00 197,41
26.02.2024 13:00:00 197,41
26.02.2024 14:00:00 197,41
26.02.2024 15:00:00 197,41
26.02.2024 16:00:00 197,41
26.02.2024 18:00:00 197,41
26.02.2024 19:00:00 197,41
26.02.2024 20:00:00 197,41
26.02.2024 21:00:00 197,41
26.02.2024 22:00:00 197,41
26.02.2024 23:00:00 197,41
27.02.2024 00:00:00 197,41
27.02.2024 02:00:00 197,40
27.02.2024 03:00:00 197,41
27.02.2024 04:00:00 197,40
27.02.2024 05:00:00 197,40
27.02.2024 06:00:00 197,40
27.02.2024 07:00:00 197,40
27.02.2024 08:00:00 197,40
27.02.2024 09:00:00 197,40
27.02.2024 14:00:00 197,40
27.02.2024 15:00:00 197,40
27.02.2024 16:00:00 197,40
27.02.2024 17:00:00 197,40
27.02.2024 21:00:00 197,40
27.02.2024 22:00:00 197,40
27.02.2024 23:00:00 197,40
28.02.2024 04:00:00 197,40
28.02.2024 05:00:00 197,40
28.02.2024 06:00:00 197,40
28.02.2024 10:00:00 197,40
28.02.2024 11:00:00 197,40
28.02.2024 13:00:00 197,40
28.02.2024 14:00:00 197,40
28.02.2024 17:00:00 197,40
28.02.2024 18:00:00 197,40
28.02.2024 22:00:00 197,40
28.02.2024 23:00:00 197,40
29.02.2024 00:00:00 197,40
29.02.2024 01:00:00 197,40
29.02.2024 02:00:00 197,40
29.02.2024 03:00:00 197,40
29.02.2024 04:00:00 197,40
29.02.2024 07:00:00 197,40
29.02.2024 08:00:00 197,40
29.02.2024 09:00:00 197,40
29.02.2024 10:00:00 197,40
29.02.2024 11:00:00 197,40
29.02.2024 12:00:00 197,40
29.02.2024 13:00:00 197,40
29.02.2024 14:00:00 197,41
29.02.2024 17:00:00 197,41
29.02.2024 18:00:00 197,40
29.02.2024 20:00:00 197,40
29.02.2024 21:00:00 197,41
29.02.2024 22:00:00 197,41
29.02.2024 23:00:00 197,40
01.03.2024 00:00:00 197,41
01.03.2024 01:00:00 197,41
01.03.2024 02:00:00 197,41
01.03.2024 07:00:00 197,41
01.03.2024 08:00:00 197,41
01.03.2024 10:00:00 197,41
01.03.2024 11:00:00 197,41
01.03.2024 12:00:00 197,41
01.03.2024 13:00:00 197,41
01.03.2024 14:00:00 197,40
01.03.2024 16:00:00 197,40
01.03.2024 17:00:00 197,40
01.03.2024 19:00:00 197,40
01.03.2024 20:00:00 197,40
01.03.2024 23:00:00 197,40
02.03.2024 00:00:00 197,40
02.03.2024 01:00:00 197,40
02.03.2024 02:00:00 197,40
02.03.2024 03:00:00 197,40
02.03.2024 04:00:00 197,40
02.03.2024 05:00:00 197,40
02.03.2024 06:00:00 197,40
02.03.2024 07:00:00 197,40
02.03.2024 08:00:00 197,40
02.03.2024 09:00:00 197,40
02.03.2024 10:00:00 197,40
02.03.2024 11:00:00 197,40
02.03.2024 12:00:00 197,40
02.03.2024 13:00:00 197,40
02.03.2024 14:00:00 197,40
02.03.2024 15:00:00 197,40
02.03.2024 17:00:00 197,40
02.03.2024 18:00:00 197,40
02.03.2024 20:00:00 197,40
02.03.2024 21:00:00 197,40
02.03.2024 22:00:00 197,40
02.03.2024 23:00:00 197,40
03.03.2024 02:00:00 197,40
03.03.2024 03:00:00 197,40
03.03.2024 04:00:00 197,40
03.03.2024 05:00:00 197,40
03.03.2024 06:00:00 197,40
03.03.2024 07:00:00 197,40
03.03.2024 08:00:00 197,40
03.03.2024 09:00:00 197,40
03.03.2024 10:00:00 197,40
03.03.2024 12:00:00 197,40
03.03.2024 13:00:00 197,40
03.03.2024 15:00:00 197,40
03.03.2024 16:00:00 197,40
03.03.2024 17:00:00 197,40
03.03.2024 18:00:00 197,40
03.03.2024 19:00:00 197,40
03.03.2024 20:00:00 197,40
03.03.2024 21:00:00 197,40
03.03.2024 22:00:00 197,40
03.03.2024 23:00:00 197,40
04.03.2024 00:00:00 197,40
04.03.2024 01:00:00 197,40
04.03.2024 04:00:00 197,40
04.03.2024 05:00:00 197,40
04.03.2024 06:00:00 197,40
04.03.2024 08:00:00 197,40
04.03.2024 09:00:00 197,40
04.03.2024 10:00:00 197,40
04.03.2024 11:00:00 197,40
04.03.2024 12:00:00 197,40
04.03.2024 16:00:00 197,40
04.03.2024 17:00:00 197,40
04.03.2024 20:00:00 197,40
04.03.2024 21:00:00 197,40
05.03.2024 01:00:00 197,40
05.03.2024 02:00:00 197,40
05.03.2024 03:00:00 197,40
05.03.2024 04:00:00 197,40
05.03.2024 05:00:00 197,40
05.03.2024 06:00:00 197,40
05.03.2024 07:00:00 197,40
05.03.2024 09:00:00 197,40
05.03.2024 10:00:00 197,39
05.03.2024 11:00:00 197,40
05.03.2024 12:00:00 197,40
05.03.2024 14:00:00 197,40
05.03.2024 15:00:00 197,39
05.03.2024 18:00:00 197,39
05.03.2024 19:00:00 197,39
05.03.2024 23:00:00 197,39
06.03.2024 00:00:00 197,39
06.03.2024 01:00:00 197,39
06.03.2024 02:00:00 197,39
06.03.2024 03:00:00 197,39
06.03.2024 08:00:00 197,39
06.03.2024 09:00:00 197,39
06.03.2024 10:00:00 197,39
06.03.2024 12:00:00 197,39
06.03.2024 13:00:00 197,39
06.03.2024 15:00:00 197,39
06.03.2024 16:00:00 197,39
06.03.2024 17:00:00 197,39
06.03.2024 18:00:00 197,39
06.03.2024 22:00:00 197,39
06.03.2024 23:00:00 197,39
07.03.2024 01:00:00 197,39
07.03.2024 02:00:00 197,39
07.03.2024 03:00:00 197,39
07.03.2024 04:00:00 197,39
07.03.2024 05:00:00 197,39
07.03.2024 06:00:00 197,39
07.03.2024 07:00:00 197,39
07.03.2024 08:00:00 197,39
07.03.2024 09:00:00 197,39
07.03.2024 10:00:00 197,39
07.03.2024 11:00:00 197,39
07.03.2024 12:00:00 197,39
07.03.2024 13:00:00 197,39
07.03.2024 14:00:00 197,39
07.03.2024 15:00:00 197,39
07.03.2024 16:00:00 197,39
07.03.2024 17:00:00 197,39
07.03.2024 18:00:00 197,39
07.03.2024 19:00:00 197,39
07.03.2024 20:00:00 197,39
07.03.2024 22:00:00 197,39
07.03.2024 23:00:00 197,39
08.03.2024 00:00:00 197,39
08.03.2024 01:00:00 197,39
08.03.2024 02:00:00 197,39
08.03.2024 03:00:00 197,39
08.03.2024 04:00:00 197,39
08.03.2024 06:00:00 197,39
08.03.2024 07:00:00 197,39
08.03.2024 08:00:00 197,39
08.03.2024 09:00:00 197,39
08.03.2024 10:00:00 197,39
08.03.2024 12:00:00 197,39
08.03.2024 13:00:00 197,39
08.03.2024 14:00:00 197,39
08.03.2024 15:00:00 197,39
08.03.2024 16:00:00 197,39
08.03.2024 17:00:00 197,39
08.03.2024 18:00:00 197,39
09.03.2024 01:00:00 197,39
09.03.2024 02:00:00 197,39
09.03.2024 03:00:00 197,39
09.03.2024 04:00:00 197,40
09.03.2024 05:00:00 197,39
09.03.2024 06:00:00 197,39
09.03.2024 08:00:00 197,39
09.03.2024 09:00:00 197,39
09.03.2024 10:00:00 197,39
09.03.2024 11:00:00 197,39
09.03.2024 12:00:00 197,39
09.03.2024 13:00:00 197,39
09.03.2024 14:00:00 197,39
09.03.2024 15:00:00 197,39
09.03.2024 16:00:00 197,40
09.03.2024 17:00:00 197,39
09.03.2024 20:00:00 197,39
09.03.2024 21:00:00 197,39
09.03.2024 22:00:00 197,39
10.03.2024 00:00:00 197,39
10.03.2024 01:00:00 197,39
10.03.2024 02:00:00 197,39
10.03.2024 03:00:00 197,39
10.03.2024 04:00:00 197,39
10.03.2024 05:00:00 197,40
10.03.2024 06:00:00 197,40
10.03.2024 07:00:00 197,39
10.03.2024 08:00:00 197,39
10.03.2024 09:00:00 197,39
10.03.2024 10:00:00 197,40
10.03.2024 11:00:00 197,39
10.03.2024 12:00:00 197,40
10.03.2024 13:00:00 197,39
10.03.2024 14:00:00 197,39
10.03.2024 15:00:00 197,40
10.03.2024 16:00:00 197,40
10.03.2024 17:00:00 197,39
10.03.2024 18:00:00 197,39
10.03.2024 19:00:00 197,39
10.03.2024 20:00:00 197,39
10.03.2024 21:00:00 197,39
10.03.2024 23:00:00 197,39
11.03.2024 00:00:00 197,39
11.03.2024 01:00:00 197,39
11.03.2024 02:00:00 197,39
11.03.2024 03:00:00 197,39
11.03.2024 04:00:00 197,39
11.03.2024 05:00:00 197,39
11.03.2024 06:00:00 197,39
11.03.2024 07:00:00 197,39
11.03.2024 08:00:00 197,39
11.03.2024 09:00:00 197,39
11.03.2024 10:00:00 197,39
11.03.2024 11:00:00 197,39
11.03.2024 12:00:00 197,39
11.03.2024 13:00:00 197,39
11.03.2024 14:00:00 197,39
11.03.2024 17:00:00 197,39
11.03.2024 18:00:00 197,39
11.03.2024 20:00:00 197,41
11.03.2024 21:00:00 197,42
11.03.2024 23:00:00 197,44
12.03.2024 01:00:00 197,45
12.03.2024 04:00:00 197,45
12.03.2024 05:00:00 197,45
12.03.2024 07:00:00 197,46
12.03.2024 08:00:00 197,46
12.03.2024 10:00:00 197,46
12.03.2024 12:00:00 197,47
12.03.2024 13:00:00 197,47
12.03.2024 14:00:00 197,47
12.03.2024 16:00:00 197,48
12.03.2024 17:00:00 197,48
12.03.2024 18:00:00 197,48
12.03.2024 19:00:00 197,48
12.03.2024 21:00:00 197,49
12.03.2024 22:00:00 197,49
12.03.2024 23:00:00 197,49
13.03.2024 00:00:00 197,49
13.03.2024 01:00:00 197,49
13.03.2024 03:00:00 197,49
13.03.2024 04:00:00 197,49
13.03.2024 08:00:00 197,49
13.03.2024 09:00:00 197,49
13.03.2024 10:00:00 197,49
13.03.2024 12:00:00 197,49
13.03.2024 13:00:00 197,49
13.03.2024 14:00:00 197,49
13.03.2024 15:00:00 197,49
13.03.2024 17:00:00 197,49
13.03.2024 18:00:00 197,48
13.03.2024 19:00:00 197,48
13.03.2024 20:00:00 197,48
13.03.2024 22:00:00 197,48
13.03.2024 23:00:00 197,48
14.03.2024 02:00:00 197,48
14.03.2024 03:00:00 197,48
14.03.2024 04:00:00 197,48
14.03.2024 05:00:00 197,48
14.03.2024 06:00:00 197,48
14.03.2024 07:00:00 197,48
14.03.2024 08:00:00 197,48
14.03.2024 12:00:00 197,48
14.03.2024 13:00:00 197,48
14.03.2024 14:00:00 197,48
14.03.2024 15:00:00 197,48
14.03.2024 17:00:00 197,48
14.03.2024 18:00:00 197,48
14.03.2024 19:00:00 197,48
14.03.2024 20:00:00 197,48
14.03.2024 21:00:00 197,48
14.03.2024 22:00:00 197,48
14.03.2024 23:00:00 197,47
15.03.2024 00:00:00 197,48
15.03.2024 01:00:00 197,48
15.03.2024 02:00:00 197,48
15.03.2024 03:00:00 197,47
15.03.2024 04:00:00 197,47
15.03.2024 05:00:00 197,48
15.03.2024 06:00:00 197,47
15.03.2024 07:00:00 197,47
15.03.2024 09:00:00 197,47
15.03.2024 10:00:00 197,47
15.03.2024 11:00:00 197,47
15.03.2024 12:00:00 197,47
15.03.2024 13:00:00 197,47
15.03.2024 14:00:00 197,47
15.03.2024 15:00:00 197,47
15.03.2024 16:00:00 197,47
15.03.2024 17:00:00 197,47
15.03.2024 18:00:00 197,47
15.03.2024 19:00:00 197,47
15.03.2024 20:00:00 197,47
15.03.2024 21:00:00 197,47
15.03.2024 22:00:00 197,47
15.03.2024 23:00:00 197,47
16.03.2024 00:00:00 197,47
16.03.2024 01:00:00 197,47
16.03.2024 02:00:00 197,47
16.03.2024 03:00:00 197,47
16.03.2024 04:00:00 197,47
16.03.2024 05:00:00 197,47
16.03.2024 06:00:00 197,47
16.03.2024 07:00:00 197,47
16.03.2024 08:00:00 197,47
16.03.2024 09:00:00 197,47
16.03.2024 11:00:00 197,47
16.03.2024 12:00:00 197,46
16.03.2024 14:00:00 197,47
16.03.2024 15:00:00 197,46
16.03.2024 16:00:00 197,46
16.03.2024 17:00:00 197,46
16.03.2024 18:00:00 197,46
16.03.2024 19:00:00 197,46
16.03.2024 20:00:00 197,46
16.03.2024 21:00:00 197,46
16.03.2024 22:00:00 197,46
16.03.2024 23:00:00 197,46
17.03.2024 00:00:00 197,46
17.03.2024 01:00:00 197,46
17.03.2024 03:00:00 197,46
17.03.2024 04:00:00 197,46
17.03.2024 05:00:00 197,46
17.03.2024 08:00:00 197,46
17.03.2024 09:00:00 197,46
17.03.2024 11:00:00 197,46
17.03.2024 12:00:00 197,46
17.03.2024 13:00:00 197,46
17.03.2024 14:00:00 197,46
17.03.2024 15:00:00 197,46
17.03.2024 16:00:00 197,46
17.03.2024 17:00:00 197,46
17.03.2024 18:00:00 197,46
17.03.2024 19:00:00 197,46
17.03.2024 20:00:00 197,46
17.03.2024 21:00:00 197,46
17.03.2024 22:00:00 197,46
17.03.2024 23:00:00 197,46
18.03.2024 00:00:00 197,46
18.03.2024 01:00:00 197,46
18.03.2024 02:00:00 197,46
18.03.2024 03:00:00 197,46
18.03.2024 04:00:00 197,46
18.03.2024 05:00:00 197,46
18.03.2024 06:00:00 197,46
18.03.2024 11:00:00 197,46
18.03.2024 12:00:00 197,46
18.03.2024 14:00:00 197,46
18.03.2024 15:00:00 197,46
18.03.2024 16:00:00 197,46
18.03.2024 17:00:00 197,46
18.03.2024 18:00:00 197,46
18.03.2024 19:00:00 197,46
18.03.2024 20:00:00 197,46
18.03.2024 21:00:00 197,46
18.03.2024 22:00:00 197,45
18.03.2024 23:00:00 197,45
19.03.2024 00:00:00 197,45
19.03.2024 01:00:00 197,45
19.03.2024 03:00:00 197,45
19.03.2024 04:00:00 197,45
19.03.2024 05:00:00 197,45
19.03.2024 06:00:00 197,45
19.03.2024 07:00:00 197,45
19.03.2024 08:00:00 197,45
19.03.2024 09:00:00 197,45
19.03.2024 10:00:00 197,45
19.03.2024 11:00:00 197,45
19.03.2024 12:00:00 197,45
19.03.2024 14:00:00 197,45
19.03.2024 15:00:00 197,45
19.03.2024 16:00:00 197,45
19.03.2024 18:00:00 197,45
20.03.2024 00:00:00 197,45
20.03.2024 01:00:00 197,45
20.03.2024 02:00:00 197,45
20.03.2024 03:00:00 197,45
20.03.2024 05:00:00 197,45
20.03.2024 06:00:00 197,45
20.03.2024 07:00:00 197,45
20.03.2024 08:00:00 197,45
20.03.2024 09:00:00 197,45
20.03.2024 11:00:00 197,45
20.03.2024 12:00:00 197,45
20.03.2024 15:00:00 197,45
20.03.2024 16:00:00 197,45
20.03.2024 17:00:00 197,45
20.03.2024 18:00:00 197,45
20.03.2024 20:00:00 197,45
20.03.2024 21:00:00 197,45
20.03.2024 22:00:00 197,45
20.03.2024 23:00:00 197,45
21.03.2024 00:00:00 197,45
21.03.2024 01:00:00 197,45
21.03.2024 03:00:00 197,45
21.03.2024 04:00:00 197,45
21.03.2024 05:00:00 197,45
21.03.2024 06:00:00 197,45
21.03.2024 07:00:00 197,45
21.03.2024 09:00:00 197,45
21.03.2024 10:00:00 197,45
21.03.2024 11:00:00 197,45
21.03.2024 12:00:00 197,45
21.03.2024 13:00:00 197,45
21.03.2024 14:00:00 197,45
21.03.2024 15:00:00 197,45
21.03.2024 17:00:00 197,44
21.03.2024 19:00:00 197,44
21.03.2024 20:00:00 197,44
21.03.2024 21:00:00 197,44
21.03.2024 22:00:00 197,44
22.03.2024 00:00:00 197,44
22.03.2024 01:00:00 197,44
22.03.2024 02:00:00 197,44
22.03.2024 03:00:00 197,44
22.03.2024 04:00:00 197,44
22.03.2024 05:00:00 197,44
22.03.2024 06:00:00 197,44
22.03.2024 13:00:00 197,44
22.03.2024 14:00:00 197,45
22.03.2024 16:00:00 197,45
22.03.2024 17:00:00 197,44
22.03.2024 18:00:00 197,44
22.03.2024 23:00:00 197,44
23.03.2024 00:00:00 197,44
23.03.2024 01:00:00 197,44
23.03.2024 02:00:00 197,45
23.03.2024 03:00:00 197,44
23.03.2024 05:00:00 197,44
23.03.2024 06:00:00 197,44
23.03.2024 07:00:00 197,44
23.03.2024 08:00:00 197,44
23.03.2024 09:00:00 197,44
23.03.2024 11:00:00 197,45
23.03.2024 13:00:00 197,44
23.03.2024 14:00:00 197,44
23.03.2024 15:00:00 197,44
23.03.2024 16:00:00 197,44
23.03.2024 17:00:00 197,44
23.03.2024 18:00:00 197,44
23.03.2024 20:00:00 197,44
23.03.2024 21:00:00 197,44
23.03.2024 22:00:00 197,44
23.03.2024 23:00:00 197,44
24.03.2024 00:00:00 197,44
24.03.2024 01:00:00 197,44
24.03.2024 02:00:00 197,44
24.03.2024 03:00:00 197,44
24.03.2024 04:00:00 197,44
24.03.2024 08:00:00 197,44
24.03.2024 09:00:00 197,44
24.03.2024 10:00:00 197,44
24.03.2024 11:00:00 197,44
24.03.2024 12:00:00 197,44
24.03.2024 13:00:00 197,44
24.03.2024 14:00:00 197,44
24.03.2024 15:00:00 197,44
24.03.2024 16:00:00 197,44
24.03.2024 17:00:00 197,44
24.03.2024 20:00:00 197,44
24.03.2024 21:00:00 197,44
24.03.2024 22:00:00 197,44
24.03.2024 23:00:00 197,43
25.03.2024 00:00:00 197,44
25.03.2024 01:00:00 197,44
25.03.2024 02:00:00 197,43
25.03.2024 03:00:00 197,43
25.03.2024 04:00:00 197,44
25.03.2024 05:00:00 197,43
25.03.2024 06:00:00 197,43
25.03.2024 08:00:00 197,43
25.03.2024 09:00:00 197,43
25.03.2024 10:00:00 197,43
25.03.2024 11:00:00 197,43
25.03.2024 12:00:00 197,43
25.03.2024 13:00:00 197,43
25.03.2024 15:00:00 197,43
25.03.2024 16:00:00 197,43
25.03.2024 18:00:00 197,43
25.03.2024 19:00:00 197,43
25.03.2024 20:00:00 197,43
25.03.2024 21:00:00 197,43
25.03.2024 23:00:00 197,43
26.03.2024 00:00:00 197,43
26.03.2024 01:00:00 197,43
26.03.2024 02:00:00 197,43
26.03.2024 04:00:00 197,43
26.03.2024 05:00:00 197,43
26.03.2024 07:00:00 197,43
26.03.2024 08:00:00 197,43
26.03.2024 09:00:00 197,43
26.03.2024 10:00:00 197,43
26.03.2024 13:00:00 197,43
26.03.2024 14:00:00 197,43
26.03.2024 15:00:00 197,43
26.03.2024 18:00:00 197,43
26.03.2024 19:00:00 197,43
26.03.2024 21:00:00 197,43
26.03.2024 22:00:00 197,43
26.03.2024 23:00:00 197,43
27.03.2024 00:00:00 197,43
27.03.2024 04:00:00 197,43
27.03.2024 05:00:00 197,43
27.03.2024 06:00:00 197,43
28.03.2024 06:00:00 197,43
